VOE2402 LFPO-LFCR

Flight info

Callsign VOE2402
Flight time 1h 0m
Altitude 29000
Route ERIXU DCT ETAMO DCT GUERE DCT EVPOK DCT MAKOX/N0389F190 G36 ESISI
Aircraft A319/M-SDE3FGHIRWY/LB1

Departure

Time 2026-05-05 20:07
Airport Paris-Orly Airport (LFPO)

Arrival

Time 2026-05-05 21:07
Airport Rodez–Aveyron Airport (LFCR)
Time Latitude Longitude Altitude Speed Heading
2026-05-05 19:29 48.72724 2.35711 295 ft 0 kts 148°
2026-05-05 19:56 48.72738 2.35698 292 ft 3 kts 130°
2026-05-05 19:56 48.72747 2.35673 292 ft 3 kts 86°
2026-05-05 19:57 48.72748 2.35646 292 ft 3 kts 104°
2026-05-05 19:57 48.72752 2.35620 290 ft 3 kts 104°
2026-05-05 19:57 48.72759 2.35594 289 ft 3 kts 141°
2026-05-05 19:57 48.72764 2.35588 291 ft 0 kts 155°
2026-05-05 20:01 48.72755 2.35594 285 ft 3 kts 155°
2026-05-05 20:02 48.72736 2.35608 287 ft 5 kts 154°
2026-05-05 20:02 48.72721 2.35619 286 ft 1 kts 154°
2026-05-05 20:02 48.72714 2.35622 288 ft 5 kts 162°
2026-05-05 20:03 48.72673 2.35638 290 ft 7 kts 166°
2026-05-05 20:03 48.72617 2.35629 290 ft 10 kts 214°
2026-05-05 20:03 48.72567 2.35564 289 ft 10 kts 191°
2026-05-05 20:03 48.72519 2.35576 287 ft 0 kts 163°
2026-05-05 20:04 48.72494 2.35586 289 ft 9 kts 166°
2026-05-05 20:05 48.72427 2.35611 288 ft 9 kts 166°
2026-05-05 20:05 48.72370 2.35633 286 ft 8 kts 168°
2026-05-05 20:05 48.72286 2.35613 290 ft 18 kts 195°
2026-05-05 20:05 48.72174 2.35622 287 ft 15 kts 166°
2026-05-05 20:06 48.72081 2.35665 288 ft 13 kts 160°
2026-05-05 20:06 48.72030 2.35751 286 ft 11 kts 122°
2026-05-05 20:06 48.71983 2.35873 288 ft 18 kts 118°
2026-05-05 20:06 48.72013 2.36237 288 ft 69 kts 74°
2026-05-05 20:07 48.72221 2.37351 290 ft 150 kts 73°
2026-05-05 20:07 48.72545 2.39023 844 ft 173 kts 72°
2026-05-05 20:07 48.72905 2.40777 1831 ft 173 kts 69°
2026-05-05 20:07 48.73158 2.42121 2498 ft 176 kts 71°
2026-05-05 20:08 48.73498 2.44014 2962 ft 197 kts 71°
2026-05-05 20:08 48.73830 2.45865 3331 ft 220 kts 72°
2026-05-05 20:08 48.74180 2.48223 3869 ft 246 kts 80°
2026-05-05 20:08 48.74332 2.50845 4645 ft 262 kts 85°
2026-05-05 20:09 48.74396 2.53605 5615 ft 267 kts 86°
2026-05-05 20:09 48.74338 2.56445 6600 ft 275 kts 100°
2026-05-05 20:09 48.73552 2.58790 7448 ft 283 kts 132°
2026-05-05 20:09 48.71906 2.60427 8470 ft 287 kts 159°
2026-05-05 20:10 48.70163 2.61201 9434 ft 289 kts 168°
2026-05-05 20:10 48.68168 2.61720 10248 ft 300 kts 177°
2026-05-05 20:10 48.66037 2.61246 10607 ft 323 kts 200°
2026-05-05 20:10 48.64014 2.59564 11012 ft 341 kts 216°
2026-05-05 20:11 48.62064 2.57447 11762 ft 348 kts 217°
2026-05-05 20:11 48.60097 2.55269 12502 ft 353 kts 217°
2026-05-05 20:11 48.58257 2.53215 12753 ft 353 kts 217°
2026-05-05 20:11 48.56324 2.51053 12923 ft 352 kts 217°
2026-05-05 20:12 48.54572 2.49097 13250 ft 353 kts 217°
2026-05-05 20:12 48.52615 2.46916 13694 ft 356 kts 217°
2026-05-05 20:12 48.50668 2.44746 14093 ft 358 kts 217°
2026-05-05 20:12 48.48801 2.42671 14473 ft 360 kts 217°
2026-05-05 20:13 48.46781 2.40434 14888 ft 362 kts 217°
2026-05-05 20:13 48.44742 2.38182 15309 ft 364 kts 217°
2026-05-05 20:13 48.42691 2.35923 15741 ft 366 kts 217°
2026-05-05 20:13 48.40788 2.33824 16144 ft 368 kts 217°
2026-05-05 20:14 48.38740 2.31566 16580 ft 370 kts 217°
2026-05-05 20:14 48.36650 2.29268 17029 ft 373 kts 217°
2026-05-05 20:14 48.34562 2.26971 17478 ft 375 kts 217°
2026-05-05 20:14 48.32488 2.24791 17927 ft 378 kts 211°
2026-05-05 20:15 48.30210 2.23156 18336 ft 381 kts 200°
2026-05-05 20:15 48.27718 2.22207 18733 ft 385 kts 189°
2026-05-05 20:15 48.25068 2.22019 19142 ft 388 kts 177°
2026-05-05 20:15 48.22683 2.22488 19513 ft 391 kts 171°
2026-05-05 20:16 48.20065 2.23135 19925 ft 393 kts 171°
2026-05-05 20:16 48.17400 2.23784 20351 ft 395 kts 171°
2026-05-05 20:16 48.14682 2.24444 20787 ft 397 kts 171°
2026-05-05 20:16 48.12307 2.25017 21172 ft 399 kts 171°
2026-05-05 20:17 48.09588 2.25670 21667 ft 401 kts 171°
2026-05-05 20:17 48.07312 2.26049 22086 ft 404 kts 176°
2026-05-05 20:17 48.04483 2.26241 22608 ft 407 kts 177°
2026-05-05 20:17 48.01649 2.26417 23141 ft 410 kts 177°
2026-05-05 20:18 47.99065 2.26575 23591 ft 412 kts 177°
2026-05-05 20:18 47.96391 2.26740 24009 ft 415 kts 177°
2026-05-05 20:18 47.93474 2.26922 24456 ft 418 kts 177°
2026-05-05 20:18 47.90502 2.27104 24914 ft 421 kts 177°
2026-05-05 20:19 47.87646 2.27282 25360 ft 424 kts 176°
2026-05-05 20:19 47.84743 2.27467 25818 ft 426 kts 176°
2026-05-05 20:19 47.81948 2.27649 26245 ft 429 kts 176°
2026-05-05 20:19 47.78955 2.27843 26690 ft 432 kts 176°
2026-05-05 20:20 47.76110 2.28024 27104 ft 434 kts 176°
2026-05-05 20:20 47.73159 2.28209 27523 ft 437 kts 176°
2026-05-05 20:20 47.70228 2.28394 27926 ft 440 kts 176°
2026-05-05 20:20 47.67170 2.28586 28335 ft 443 kts 176°
2026-05-05 20:21 47.64496 2.28757 28682 ft 445 kts 176°
2026-05-05 20:21 47.61452 2.28952 28838 ft 445 kts 176°
2026-05-05 20:21 47.58524 2.29134 28863 ft 443 kts 176°
2026-05-05 20:22 47.52827 2.29488 28858 ft 441 kts 176°
2026-05-05 20:22 47.47196 2.29850 28863 ft 440 kts 176°
2026-05-05 20:23 47.41167 2.30234 28864 ft 440 kts 176°
2026-05-05 20:23 47.35914 2.30556 28870 ft 439 kts 177°
2026-05-05 20:24 47.30330 2.30893 28878 ft 438 kts 177°
2026-05-05 20:24 47.24813 2.31235 28882 ft 438 kts 177°
2026-05-05 20:25 47.18751 2.31615 28892 ft 437 kts 177°
2026-05-05 20:25 47.13217 2.31959 28897 ft 436 kts 177°
2026-05-05 20:26 47.07193 2.32327 28900 ft 435 kts 178°
2026-05-05 20:26 47.01191 2.32693 28899 ft 434 kts 178°
2026-05-05 20:27 46.95344 2.33054 28900 ft 433 kts 178°
2026-05-05 20:27 46.89371 2.33426 28901 ft 432 kts 178°
2026-05-05 20:28 46.83454 2.33332 28898 ft 432 kts 188°
2026-05-05 20:28 46.77790 2.31349 28899 ft 432 kts 194°
2026-05-05 20:29 46.72037 2.29133 28902 ft 431 kts 194°
2026-05-05 20:29 46.67216 2.27285 28900 ft 431 kts 194°
2026-05-05 20:30 46.62436 2.25450 28904 ft 430 kts 194°
2026-05-05 20:30 46.56998 2.23362 28910 ft 430 kts 194°
2026-05-05 20:31 46.51214 2.21160 28907 ft 429 kts 194°
2026-05-05 20:31 46.46059 2.19205 28912 ft 428 kts 194°
2026-05-05 20:32 46.40454 2.17077 28909 ft 428 kts 194°
2026-05-05 20:32 46.34761 2.14906 28904 ft 428 kts 194°
2026-05-05 20:33 46.28989 2.12712 28907 ft 427 kts 194°
2026-05-05 20:33 46.23457 2.10628 28910 ft 427 kts 194°
2026-05-05 20:34 46.18760 2.08321 28908 ft 427 kts 206°
2026-05-05 20:34 46.13817 2.03697 28912 ft 427 kts 214°
2026-05-05 20:35 46.09127 1.98945 28913 ft 426 kts 214°
2026-05-05 20:35 46.04316 1.94109 28916 ft 426 kts 214°
2026-05-05 20:36 45.99460 1.89243 28917 ft 425 kts 214°
2026-05-05 20:36 45.94791 1.84570 28915 ft 425 kts 214°
2026-05-05 20:37 45.90537 1.80313 28918 ft 425 kts 214°
2026-05-05 20:37 45.86201 1.75984 28922 ft 425 kts 214°
2026-05-05 20:38 45.81426 1.71213 28924 ft 424 kts 214°
2026-05-05 20:38 45.76838 1.66658 28923 ft 424 kts 214°
2026-05-05 20:39 45.72408 1.62266 28921 ft 424 kts 214°
2026-05-05 20:39 45.67913 1.57815 28922 ft 424 kts 214°
2026-05-05 20:40 45.63074 1.53036 28921 ft 425 kts 214°
2026-05-05 20:40 45.58593 1.48613 28921 ft 425 kts 214°
2026-05-05 20:41 45.53841 1.43929 28923 ft 425 kts 213°
2026-05-05 20:41 45.49078 1.39248 28927 ft 424 kts 213°
2026-05-05 20:42 45.44336 1.34604 28922 ft 424 kts 213°
2026-05-05 20:42 45.39976 1.30350 28925 ft 424 kts 213°
2026-05-05 20:43 45.34966 1.26827 28926 ft 422 kts 195°
2026-05-05 20:43 45.29224 1.26045 28924 ft 423 kts 175°
2026-05-05 20:44 45.24920 1.27415 28926 ft 425 kts 164°
2026-05-05 20:44 45.23882 1.27865 28929 ft 425 kts 165°
2026-05-05 20:45 45.15641 1.31469 28928 ft 425 kts 165°
2026-05-05 20:45 45.09994 1.33920 28928 ft 424 kts 165°
2026-05-05 20:46 45.04743 1.36182 28929 ft 424 kts 165°
2026-05-05 20:46 44.99210 1.38560 28926 ft 424 kts 165°
2026-05-05 20:47 44.96380 1.39774 28798 ft 424 kts 165°
2026-05-05 20:47 44.93558 1.40988 28519 ft 424 kts 165°
2026-05-05 20:47 44.90893 1.42135 28255 ft 425 kts 165°
2026-05-05 20:47 44.88208 1.43292 27993 ft 425 kts 165°
2026-05-05 20:48 44.85431 1.44498 27719 ft 414 kts 165°
2026-05-05 20:48 44.82820 1.45671 27460 ft 401 kts 162°
2026-05-05 20:48 44.80323 1.47278 27198 ft 391 kts 153°
2026-05-05 20:48 44.78172 1.49290 26976 ft 381 kts 145°
2026-05-05 20:49 44.76265 1.51721 26837 ft 372 kts 137°
2026-05-05 20:49 44.74651 1.54470 26513 ft 368 kts 129°
2026-05-05 20:49 44.73333 1.57099 26103 ft 365 kts 129°
2026-05-05 20:49 44.72128 1.59496 25702 ft 363 kts 129°
2026-05-05 20:50 44.70675 1.62377 25209 ft 359 kts 129°
2026-05-05 20:50 44.69230 1.65236 24699 ft 356 kts 129°
2026-05-05 20:50 44.67849 1.67962 24278 ft 351 kts 129°
2026-05-05 20:50 44.66435 1.70748 23735 ft 349 kts 129°
2026-05-05 20:51 44.65028 1.73523 23160 ft 347 kts 129°
2026-05-05 20:51 44.63716 1.76113 22614 ft 345 kts 129°
2026-05-05 20:51 44.62333 1.78843 22058 ft 343 kts 129°
2026-05-05 20:51 44.60961 1.81543 21486 ft 341 kts 129°
2026-05-05 20:52 44.59589 1.84240 21010 ft 338 kts 129°
2026-05-05 20:52 44.58228 1.86908 20530 ft 334 kts 129°
2026-05-05 20:52 44.56880 1.89550 20091 ft 331 kts 129°
2026-05-05 20:52 44.55565 1.92126 19666 ft 329 kts 129°
2026-05-05 20:53 44.54235 1.94730 19238 ft 328 kts 129°
2026-05-05 20:53 44.52908 1.97327 18809 ft 327 kts 129°
2026-05-05 20:53 44.51682 1.99720 18409 ft 327 kts 129°
2026-05-05 20:53 44.50356 2.02307 17943 ft 327 kts 129°
2026-05-05 20:54 44.49033 2.04890 17512 ft 325 kts 129°
2026-05-05 20:54 44.47718 2.07458 17086 ft 324 kts 129°
2026-05-05 20:54 44.46418 2.09994 16666 ft 322 kts 129°
2026-05-05 20:54 44.45180 2.12406 16270 ft 321 kts 129°
2026-05-05 20:55 44.43876 2.14945 15832 ft 320 kts 128°
2026-05-05 20:55 44.42577 2.17473 15441 ft 320 kts 128°
2026-05-05 20:55 44.41286 2.19983 15027 ft 319 kts 128°
2026-05-05 20:55 44.40077 2.22334 14666 ft 318 kts 128°
2026-05-05 20:56 44.38790 2.24830 14313 ft 316 kts 128°
2026-05-05 20:56 44.37577 2.27179 13948 ft 315 kts 128°
2026-05-05 20:56 44.36293 2.29663 13484 ft 316 kts 128°
2026-05-05 20:56 44.35019 2.32135 13165 ft 311 kts 127°
2026-05-05 20:57 44.33825 2.34633 12511 ft 309 kts 124°
2026-05-05 20:57 44.32710 2.37131 11972 ft 305 kts 123°
2026-05-05 20:57 44.31622 2.39638 11490 ft 299 kts 122°
2026-05-05 20:57 44.30556 2.42099 11019 ft 292 kts 122°
2026-05-05 20:58 44.29510 2.44493 10563 ft 285 kts 123°
2026-05-05 20:58 44.28520 2.46731 10226 ft 274 kts 123°
2026-05-05 20:58 44.27524 2.48966 9707 ft 270 kts 123°
2026-05-05 20:58 44.26595 2.51044 9257 ft 264 kts 123°
2026-05-05 20:59 44.25635 2.53188 8838 ft 257 kts 123°
2026-05-05 20:59 44.24704 2.55270 8437 ft 250 kts 123°
2026-05-05 20:59 44.23791 2.57309 8047 ft 245 kts 123°
2026-05-05 20:59 44.22906 2.59284 7838 ft 232 kts 123°
2026-05-05 21:00 44.22091 2.61102 7819 ft 210 kts 122°
2026-05-05 21:00 44.21590 2.62907 7719 ft 193 kts 100°
2026-05-05 21:00 44.21614 2.64690 7554 ft 180 kts 76°
2026-05-05 21:00 44.22136 2.66213 7397 ft 171 kts 50°
2026-05-05 21:01 44.23037 2.67224 7192 ft 167 kts 33°
2026-05-05 21:01 44.24009 2.68152 6905 ft 171 kts 32°
2026-05-05 21:01 44.25017 2.68997 6596 ft 172 kts 21°
2026-05-05 21:01 44.26179 2.69437 6280 ft 172 kts
2026-05-05 21:02 44.27329 2.69496 6171 ft 160 kts 356°
2026-05-05 21:02 44.28395 2.69301 6032 ft 150 kts 339°
2026-05-05 21:02 44.29278 2.68505 5611 ft 157 kts 309°
2026-05-05 21:02 44.29949 2.67307 5285 ft 161 kts 306°
2026-05-05 21:03 44.30616 2.66038 4950 ft 166 kts 303°
2026-05-05 21:03 44.31234 2.64634 4467 ft 174 kts 298°
2026-05-05 21:03 44.31786 2.63185 4061 ft 177 kts 299°
2026-05-05 21:03 44.32528 2.61866 3870 ft 164 kts 313°
2026-05-05 21:04 44.33310 2.60918 3889 ft 139 kts 319°
2026-05-05 21:04 44.34000 2.60036 3869 ft 131 kts 311°
2026-05-05 21:04 44.34621 2.59120 3794 ft 129 kts 309°
2026-05-05 21:04 44.35200 2.58178 3703 ft 127 kts 309°
2026-05-05 21:05 44.35755 2.57215 3567 ft 127 kts 303°
2026-05-05 21:05 44.36260 2.56185 3435 ft 128 kts 303°
2026-05-05 21:05 44.36811 2.55188 3218 ft 134 kts 306°
2026-05-05 21:05 44.37371 2.54167 2977 ft 131 kts 306°
2026-05-05 21:06 44.37942 2.53162 2698 ft 131 kts 308°
2026-05-05 21:06 44.38507 2.52204 2475 ft 128 kts 307°
2026-05-05 21:06 44.39050 2.51262 2325 ft 129 kts 306°
2026-05-05 21:06 44.39616 2.50288 2160 ft 130 kts 306°
2026-05-05 21:07 44.40184 2.49291 1955 ft 132 kts 307°
2026-05-05 21:07 44.40719 2.48383 1898 ft 104 kts 309°
2026-05-05 21:07 44.41015 2.47871 1903 ft 49 kts 309°
2026-05-05 21:07 44.41215 2.47524 1908 ft 38 kts 310°
2026-05-05 21:08 44.41317 2.47359 1910 ft 20 kts 319°
2026-05-05 21:08 44.41359 2.47298 1915 ft 1 kts 202°
2026-05-05 21:08 44.41345 2.47310 1903 ft 3 kts 138°
2026-05-05 21:08 44.41313 2.47360 1916 ft 12 kts 129°
2026-05-05 21:09 44.41247 2.47473 1917 ft 19 kts 129°
2026-05-05 21:09 44.41155 2.47627 1913 ft 22 kts 131°
2026-05-05 21:09 44.41057 2.47804 1904 ft 25 kts 127°
2026-05-05 21:09 44.40938 2.48005 1895 ft 28 kts 131°
2026-05-05 21:10 44.40824 2.48201 1899 ft 17 kts 129°
2026-05-05 21:10 44.40772 2.48342 1894 ft 15 kts 69°
2026-05-05 21:10 44.40787 2.48369 1894 ft 2 kts 51°
2026-05-05 21:10 44.40799 2.48390 1895 ft 3 kts 51°
2026-05-05 21:11 44.40816 2.48419 1899 ft 4 kts 51°
2026-05-05 21:11 44.40822 2.48422 1899 ft 0 kts 18°
2026-05-05 21:11 44.40824 2.48425 1893 ft 5 kts 28°
2026-05-05 21:12 44.40869 2.48445 1899 ft 7 kts 352°
2026-05-05 21:12 44.40904 2.48399 1899 ft 7 kts 307°
2026-05-05 21:12 44.40939 2.48340 1895 ft 8 kts 310°
2026-05-05 21:12 44.40986 2.48313 1899 ft 3 kts 14°
2026-05-05 21:13 44.40997 2.48333 1890 ft 3 kts 73°
2026-05-05 21:13 44.40995 2.48355 1893 ft 1 kts 127°
2026-05-05 21:13 44.40986 2.48362 1899 ft 0 kts 154°
2026-05-05 21:13 44.40983 2.48363 1899 ft 1 kts 154°
2026-05-05 21:14 44.40976 2.48366 1892 ft 2 kts 164°
2026-05-05 21:14 44.40968 2.48369 1896 ft 0 kts 168°